Vertical_Velocity
-4 -5 -6 -5 4 1 -5 1 1 3 -2 -5 -4 1 2 4 2 -2 -2 1 2 -3 -4 -2 -1 -1 -2 -5 -6 -6 -1 2 1 -1 -3 -2 0 8 -2 3 -1 -5 -3
3 -5 -1 -4 -3 0 3 -1 -0 1 5 2 -0 -1 1 3 -0 5 -0 1 3 2 1 -2 -2 -2 -1 0 -1 1 -0 -2 -2 1 -3 -1 7 -1 0 -4 -2 -3 -1
-3 -1 -2 -2 -6 -2 -3 2 -3 -2 1 5 1 -0 2 1 -0 4 3 9 11 -1 -0 1 0 -2 -4 -2 -4 -1 0 -3 3 7 2 2 -1 -1 -2 -3 1 0 1
2 -1 0 -0 -2 -0 0 -3 2 1 -2 -1 0 4 -0 -2 1 1 11 5 3 5 -1 1 4 1 2 -2 -1 -2 4 3 3 2 -1 -4 -2 -1 -2 2 4 0 2
1 -10 1 10 3 -2 3 -4 -3 -1 3 6 3 0 8 0 -1 4 13 5 3 -0 -2 0 3 0 5 -1 7 -3 -4 -3 -4 -3 -2 1 -2 -1 0 1 -0 -2 5
-4 -14 2 4 9 2 -4 3 -6 -3 6 5 -3 -3 -1 1 -1 17 7 6 1 -1 -2 2 4 1 -4 -1 -1 3 2 1 -2 -2 -3 0 -2 2 1 2 3 3 4
8 5 2 -4 -0 1 8 5 0 -4 18 -0 10 -1 11 -1 -1 0 1 -0 9 9 1 2 4 3 -0 -3 -3 0 -2 -1 -1 -1 0 2 1 4 2 1 1 1 -2
-1 9 -3 10 -23 12 5 4 3 10 1 5 3 -2 -15 -3 6 -0 1 1 -1 2 2 1 -0 -1 -2 5 0 2 3 4 -0 0 -1 -1 2 2 1 3 6 -1 -4
-4 3 -4 -15 3 9 8 5 -2 1 4 3 1 -0 -8 3 1 2 5 2 2 1 1 2 -0 -0 2 2 -1 2 -0 -1 -3 2 4 2 1 -1 -1 -0 -3 -1 -2
-2 12 1 -12 4 7 4 -5 2 0 3 1 8 0 -3 0 5 2 5 3 11 12 5 5 1 1 0 3 4 1 2 1 -1 -2 -1 -3 -5 -3 -1 -2 -0 0 -3
39 11 -2 5 1 4 -1 -1 1 -5 2 0 4 3 2 1 -2 4 2 6 6 3 1 -2 -1 -1 -3 3 3 1 4 5 1 -6 -1 0 -2 -4 -5 -6 -4 -1 3
-48 -31 67 3 4 -0 3 0 2 0 -8 -1 3 -0 -5 -4 -6 -7 0 3 2 3 5 4 2 -1 2 1 0 -4 1 -0 -1 -1 -1 -1 -0 1 2 -7 -5 -3 -3
-9 -1 -2 -8 2 -1 -2 -0 4 -1 0 2 -6 3 0 -7 1 -0 -5 -3 -2 6 -0 -4 -2 1 6 3 2 1 -3 -5 0 6 -0 -1 -3 -1 2 2 -2 -6 -2
8 3 0 5 -3 -12 -8 2 3 -6 1 1 1 -1 7 -5 -2 -5 -1 3 1 -4 7 2 2 -3 -0 5 9 4 4 3 2 -2 1 1 3 3 -4 2 2 -4 -3
1 6 -2 2 -2 8 -2 -7 6 6 8 -2 -4 -5 3 5 0 3 -1 -3 4 -0 -6 3 0 3 -1 -3 2 3 -1 2 1 0 6 -4 1 -3 4 -0 -3 4 8
3 -8 8 -11 -1 -3 2 -6 5 1 4 10 5 3 -4 3 -0 -1 -0 3 -3 2 -6 -3 -0 4 4 -3 -2 2 3 3 -0 2 2 2 5 1 1 -7 1 1 -1
0 4 -1 0 3 4 1 -3 -4 6 4 0 5 -3 2 1 4 -2 2 3 4 2 -2 5 4 1 -1 2 -1 -5 -1 3 1 3 -4 6 4 -1 4 3 2 -6 -2
4 1 4 1 -1 2 -3 -1 2 -3 6 -2 1 3 3 -0 1 0 4 -6 -3 -1 -1 5 3 1 1 3 4 -1 0 2 -2 7 -0 1 4 5 -1 1 2 1 2
-0 -1 -5 -4 -6 -4 -4 -3 -2 2 1 -7 0 -2 5 1 -1 1 -0 -4 4 3 -3 1 1 4 2 0 2 1 1 2 3 2 -3 1 2 1 1 1 2 -2 1
-2 1 -2 -2 -4 -2 2 1 -0 1 -8 1 0 4 3 -4 0 -3 -13 -1 -5 -2 5 2 0 -0 -2 -1 2 3 6 2 -0 0 -2 -2 -2 -3 0 1 -0 -3 -1
-2 -1 -1 -1 -2 0 -3 1 -4 -6 -5 -0 2 2 3 3 2 1 3 3 -2 3 1 -2 3 5 -0 -0 0 3 6 2 3 4 4 1 -6 -1 -1 1 1 1 0
-2 1 3 3 0 -2 -0 1 2 -1 -1 -4 -1 0 -2 -2 2 -1 0 -0 1 -0 4 3 -2 5 0 -6 -4 2 1 1 -3 -3 -2 0 -2 3 3 -1 -4 -0 -4
0 -2 2 -0 -5 -1 1 -1 -2 0 1 -1 -3 -1 -2 -1 1 1 -0 3 3 2 -2 1 3 3 3 -4 -3 2 2 4 2 -1 1 -2 3 4 4 1 -2 1 -3
-3 -1 -2 -1 1 -1 1 0 -4 -2 1 -2 -3 -1 -2 2 -2 -0 1 -2 4 1 0 3 -2 -0 4 1 0 -1 -5 -1 3 2 2 -1 1 2 3 0 -2 -2 2
3 5 4 -1 -1 3 -3 -5 1 1 2 2 1 -2 -2 -1 1 1 0 -1 -3 1 3 1 -1 0 4 2 -0 2 -0 0 3 -2 -1 2 5 1 -3 -1 0 -2 -4
-2 -1 -2 -2 1 2 0 -4 -1 -8 -3 1 -2 -3 -1 0 0 0 2 1 1 -2 -1 1 0 -3 -1 3 3 -0 0 1 0 0 2 -0 -0 -1 -1 -0 -2 -4 -2
Height
3213 3215 3218 3219 3223 3226 3228 3229 3230 3230 3231 3231 3232 3235 3236 3237 3237 3237 3238 3239 3239 3240 3240 3240 3240 3240 3240 3241 3241 3241 3240 3239 3238 3237 3234 3233 3232 3232 3232 3232 3230 3228 3227
3210 3212 3214 3215 3218 3221 3225 3228 3228 3229 3229 3229 3231 3233 3235 3236 3236 3236 3236 3237 3236 3237 3238 3238 3238 3238 3238 3238 3238 3239 3238 3238 3237 3235 3234 3233 3232 3231 3231 3230 3229 3228 3226
3206 3207 3210 3211 3212 3216 3218 3222 3225 3226 3227 3229 3230 3232 3233 3233 3233 3233 3234 3234 3234 3235 3236 3235 3236 3236 3236 3235 3236 3236 3236 3235 3234 3233 3231 3231 3231 3231 3230 3229 3228 3226 3224
3203 3204 3205 3207 3209 3213 3215 3217 3220 3222 3224 3225 3227 3228 3228 3229 3231 3232 3231 3232 3232 3233 3234 3233 3234 3234 3235 3234 3234 3234 3233 3233 3232 3231 3230 3230 3230 3230 3229 3228 3227 3225 3224
3199 3200 3203 3202 3205 3208 3211 3213 3216 3217 3218 3221 3222 3222 3223 3226 3228 3229 3230 3229 3230 3230 3230 3231 3231 3231 3231 3231 3232 3232 3232 3231 3230 3229 3228 3227 3226 3226 3225 3225 3225 3224 3222
3190 3194 3199 3198 3202 3204 3205 3208 3208 3208 3211 3213 3215 3218 3220 3222 3224 3224 3225 3225 3226 3227 3226 3227 3228 3228 3227 3227 3228 3228 3229 3228 3228 3227 3226 3225 3224 3224 3223 3221 3220 3220 3219
3181 3183 3190 3193 3196 3198 3201 3200 3203 3204 3204 3207 3211 3213 3216 3217 3218 3219 3221 3222 3223 3223 3223 3223 3223 3223 3223 3223 3224 3224 3224 3224 3223 3222 3221 3222 3221 3220 3219 3218 3216 3214 3214
3180 3184 3189 3188 3191 3193 3195 3197 3199 3199 3199 3199 3203 3206 3208 3211 3213 3215 3215 3216 3217 3218 3218 3218 3218 3219 3219 3219 3219 3219 3218 3218 3218 3217 3217 3216 3215 3214 3213 3213 3212 3209 3206
3177 3180 3184 3185 3185 3187 3189 3192 3192 3192 3193 3194 3196 3200 3203 3204 3207 3208 3209 3210 3210 3211 3213 3213 3213 3213 3214 3214 3214 3214 3213 3212 3212 3212 3211 3210 3209 3208 3207 3205 3204 3203 3199
3169 3173 3175 3177 3178 3181 3184 3186 3186 3185 3187 3190 3191 3193 3195 3198 3200 3200 3201 3201 3202 3204 3205 3206 3207 3208 3208 3209 3209 3209 3208 3206 3206 3206 3205 3204 3202 3200 3199 3198 3198 3196 3195
3157 3166 3167 3169 3172 3175 3179 3182 3183 3183 3184 3185 3185 3186 3188 3191 3192 3193 3194 3196 3198 3199 3199 3199 3199 3200 3202 3203 3203 3203 3203 3202 3200 3200 3198 3196 3195 3193 3191 3190 3191 3189 3189
3158 3150 3148 3163 3168 3172 3175 3178 3180 3180 3181 3181 3181 3181 3183 3185 3187 3189 3191 3191 3192 3193 3193 3192 3193 3194 3195 3196 3196 3196 3196 3196 3195 3193 3192 3190 3189 3188 3185 3183 3185 3184 3183
3161 3162 3161 3164 3167 3169 3172 3174 3175 3176 3178 3178 3178 3178 3178 3180 3182 3183 3184 3186 3188 3188 3188 3187 3188 3189 3189 3190 3191 3191 3191 3190 3190 3188 3186 3185 3184 3184 3182 3178 3177 3177 3177
3157 3159 3162 3162 3162 3166 3169 3169 3171 3172 3173 3173 3174 3175 3175 3175 3176 3178 3180 3181 3181 3182 3184 3184 3184 3184 3185 3185 3185 3185 3185 3183 3182 3182 3180 3178 3177 3176 3176 3176 3173 3171 3170
3151 3154 3156 3158 3159 3160 3162 3164 3166 3166 3166 3168 3169 3171 3172 3170 3172 3173 3175 3176 3176 3176 3178 3178 3178 3178 3178 3180 3179 3178 3177 3176 3175 3174 3172 3171 3170 3170 3169 3169 3169 3169 3167
3149 3152 3151 3154 3155 3155 3158 3160 3160 3161 3162 3162 3162 3164 3168 3168 3168 3169 3169 3169 3169 3170 3171 3173 3172 3172 3170 3171 3172 3170 3168 3167 3166 3166 3165 3165 3164 3164 3164 3163 3163 3161 3161
3145 3145 3147 3149 3149 3148 3152 3154 3156 3154 3157 3158 3157 3157 3159 3164 3162 3163 3164 3162 3162 3162 3164 3165 3165 3165 3164 3163 3162 3161 3160 3160 3160 3159 3159 3158 3158 3157 3157 3156 3156 3154 3153
3141 3142 3142 3142 3142 3144 3145 3147 3147 3148 3148 3147 3149 3150 3151 3151 3154 3154 3156 3155 3155 3155 3157 3157 3156 3156 3156 3154 3153 3152 3152 3153 3154 3151 3151 3152 3151 3150 3149 3148 3146 3144 3143
3134 3135 3136 3138 3140 3140 3141 3141 3143 3142 3141 3142 3144 3143 3144 3145 3146 3145 3145 3147 3145 3148 3148 3149 3149 3147 3145 3145 3144 3145 3146 3146 3145 3143 3144 3145 3144 3143 3142 3140 3137 3136 3135
3132 3133 3134 3134 3135 3135 3136 3134 3135 3135 3136 3136 3137 3138 3139 3140 3140 3136 3139 3139 3140 3140 3139 3139 3140 3140 3138 3136 3136 3138 3139 3138 3137 3135 3136 3136 3135 3135 3134 3132 3128 3126 3125
3129 3129 3130 3131 3131 3130 3130 3129 3128 3128 3128 3129 3128 3129 3129 3130 3131 3130 3130 3130 3130 3131 3131 3131 3131 3131 3131 3130 3130 3130 3130 3130 3129 3130 3130 3128 3129 3128 3126 3124 3120 3118 3116
3126 3126 3126 3125 3126 3126 3125 3125 3124 3122 3121 3121 3122 3122 3122 3123 3121 3121 3121 3121 3121 3122 3122 3122 3123 3122 3121 3121 3122 3123 3123 3122 3122 3122 3121 3120 3120 3119 3115 3113 3111 3108 3107
3122 3122 3122 3121 3121 3121 3120 3118 3118 3117 3115 3114 3116 3116 3115 3114 3114 3113 3113 3114 3114 3114 3114 3113 3112 3113 3114 3114 3114 3115 3114 3113 3113 3113 3113 3113 3112 3110 3106 3104 3102 3100 3098
3117 3117 3117 3116 3115 3114 3114 3114 3112 3112 3110 3108 3107 3109 3109 3108 3107 3106 3105 3107 3108 3107 3106 3105 3104 3105 3106 3106 3106 3105 3106 3107 3106 3106 3105 3104 3102 3100 3098 3095 3094 3092 3091
3110 3109 3108 3108 3108 3107 3106 3106 3106 3107 3105 3104 3101 3100 3101 3101 3101 3101 3099 3099 3100 3100 3099 3099 3098 3098 3099 3099 3099 3099 3099 3099 3099 3099 3098 3096 3094 3092 3090 3089 3087 3084 3082
3102 3102 3102 3101 3100 3098 3098 3099 3098 3097 3097 3097 3095 3094 3095 3094 3094 3093 3092 3092 3092 3092 3092 3092 3091 3091 3092 3092 3092 3092 3093 3093 3092 3092 3090 3089 3086 3084 3083 3080 3078 3077 3075